星链-33690 (STARLINK-33690)

导读

STARLINK-33690是美国太空探索技术公司(SpaceX)星链(Starlink)互联网星座项目中的一颗低轨通信卫星,于2025年3月31日由美国发射入轨。星链星座旨在构建全球卫星互联网系统,为全球范围用户提供高速宽带网络服务,尤其覆盖偏远地区,该卫星承担星座组网中通信传输任务,进一步完善星链全球覆盖能力。

Basic Information
目录编号:
63406
目录名称:
STARLINK-33690
国际标识:
2025-065H
轨道中心:
EARTH
卫星名称:
星链-33690
卫星全名:
星链-33690 (STARLINK-33690)
卫星状态:
已陨落 最后检测时间 2026-08-07
发射日期:
2025-03-31 UTC
国别 :
美国 (US)
星等 :
--
Orbit Information
数据来源 国际轨道数据
星历时间: 2026-08-07T01:33:23+0800
轨道信息已过期29天
半长轴: 6599.8km
偏心率: 0.0004618
轨道倾角: 42.997°
近地点辐角 317.793°
升交点赤经 327.743°
平近点角 42.260°
近地点: 218.615km
远地点: 224.711km
周期: 88.932分钟
每日圈数: 16.192229
Detailed Information
固有亮度:
5
最大亮度:
2.5
卫星平台:
Starlink V1.0
覆盖范围:
全球
运营商:
太空探索技术公司
运营商所在国:
美国
制造商(研发单位):
太空探索技术公司
制造商所在国:
美国
使用方式:
暂无
Satellite Introduction
Starlink 计划是 SpaceX 推出的全球卫星互联网项目,通过发射低轨道卫星,为全球尤其是偏远地区提供高速、低延迟的互联网服务。自 2019 年起,Starlink 已部署数千颗卫星,旨在缩小全球数字鸿沟,推动互联网普及。该项目还为军事、航空等行业提供通信支持,带来广泛经济效益。